カタログに戻る

HULIANWANG DIGUI-122

運用中通信LEO
NORAD 67062·PAYLOAD·🇨🇳 China

打ち上げ Dec 11, 2025 から Wenchang Space Launch Site

Loading…

次のパス (今後24時間)

TLE

最新Source: Space-Track

元期: Sep 14, 2026, 12:28 UTC

1 67062U 25295D   26257.51983430 -.00000116  00000-0  17304-4 0  9997
2 67062  50.0036  65.1635 0000820  60.6840 299.4114 13.29325625 37386

AllMySatでHULIANWANG DIGUI-122をリアルタイム追跡

Download on the App Store